Location: Calvin Observatory
(42.9309°N, 85.5886°W)
Time: 08:33:10
(UTC-05:00)

ISS - Visible Passes

Search period start: 22 December 2014 00:00
Search period end: 01 January 2015 00:00
Orbit: 404 x 414 km, 51.6° (Epoch: 22 December)

Date Brightness Start Highest point End Pass type
(mag) Time Alt. Az. Time Alt. Az. Time Alt. Az.
22 Dec -2.5 18:38:59 10° NW 18:42:02 33° NNE 18:42:17 33° NE visible
23 Dec -2.0 17:48:14 10° NW 17:51:02 25° NNE 17:53:50 10° ENE visible
23 Dec -1.9 19:24:36 10° WNW 19:26:41 36° WNW 19:26:41 36° WNW visible
24 Dec -3.4 18:33:43 10° NW 18:37:00 65° NNE 18:38:29 29° ESE visible
24 Dec 0.3 20:11:07 10° W 20:11:16 11° W 20:11:16 11° W visible
25 Dec -2.8 17:42:51 10° NW 17:46:00 41° NNE 17:49:08 10° E visible
25 Dec -1.5 19:19:36 10° WNW 19:22:29 28° SW 19:23:19 25° SSW visible
26 Dec -2.5 18:28:25 10° WNW 18:31:38 52° SW 18:34:49 10° SE visible
27 Dec 0.0 19:15:27 10° WSW 19:16:46 12° SW 19:18:04 10° SSW visible
28 Dec -0.5 18:23:21 10° W 18:25:56 21° SW 18:28:29 10° S visible
